Satellite-Ground Cal/Val Site Overpasses Predictions

Prediction of Satellite NPP Overpassing Cal/Val Site: Antarctic Dome C

Ground Cal/Val Site Location: Latitude: -75.10, Longitude: 123.35; Satellite-Ground Site NADIR distance within 100 km.

Table of predicted overpasses for the next 14.0 days since TLE Epoch: 3/25/2012
Interval Starting Time Ending Time Minimum Distance Time Minimum Distance (km)
1 03/25/2012 15:00:32 03/25/2012 15:00:56 03/25/2012 15:00:44 58.55
2 03/26/2012 14:41:41 03/26/2012 14:42:06 03/26/2012 14:41:54 50.76
3 03/27/2012 07:43:23 03/27/2012 07:43:42 03/27/2012 07:43:32 75.11
4 03/28/2012 07:24:29 03/28/2012 07:24:57 03/28/2012 07:24:43 32.68
5 03/30/2012 15:06:55 03/30/2012 15:07:02 03/30/2012 15:06:58 96.47
6 03/31/2012 14:47:54 03/31/2012 14:48:23 03/31/2012 14:48:08 15.21
7 04/02/2012 07:30:42 04/02/2012 07:31:12 04/02/2012 07:30:57 4.06
8 04/05/2012 14:54:08 04/05/2012 14:54:37 04/05/2012 14:54:23 21.62
9 04/06/2012 14:35:25 04/06/2012 14:35:40 04/06/2012 14:35:32 85.61
